Retour au catalogue

STARLINK-4351

ActifCommunicationsSSO
NORAD 53193·PAYLOAD·🇺🇸 United States

Lancé Jul 22, 2022 depuis Vandenberg Space Force Base

Loading…

Prochains Passages (prochaines 24 heures)

TLE

FraisSource: CelesTrak SupGP

Époque: Sep 14, 2026, 21:02 UTC

1 53193C 22084E   26257.87687500 -.00027939  00000+0 -86760-3 0  2578
2 53193  97.2834 312.7743 0001188  95.9384 325.7700 15.33441881    12

Suivez STARLINK-4351 en temps réel avec AllMySat

Download on the App Store